Showing default

ALOUETTE 2, 1804

Orbit data source: Space-Track

ALOUETTE 2, 1804 is a payload satellite owned by DRTE (CA) in LEO that was launched on Mon, 29 Nov 1965 UTC via a THOR SLV-2 AGENA B launch vehicle from the Air Force Western Test Range (AFWTR). Payloads include a variety of satellites, spacecraft, and rockets equipped with specific instruments for various scientific and technological missions. These include communications satellites like Starlink; space stations such as the ISS; scientific satellites like the Hubble; Earth observation satellites from companies like Planet Labs, Umbra, and HawkEye 360; GPS; miniature CubeSats for education and research; and military/defense satellites.

Loading next visibility...
ALOUETTE 2 details
Identifier
1804, 1965-098A
Orbit
LEO
Last TLE update1 day ago
Origin
Flag of CADRTE (CA)
ManufacturerDEHAVT/RCAV
MissionCivil Science
Bus & MotorALOUETTE, Unknown motor
Mass145 kg wet, 145 kg dry
Launch date (UTC)
1965-11-29 (59 years ago)
Launch vehicle
THOR SLV-2 AGENA B
Launch site
Air Force Western Test Range (AFWTR)
Object type
Payload
Rocket body
Debris
Shape & HBREll + 1 Rod, 73 m
Radar Cross Section0.732 m², Medium (>0.1 m² and < 1m²)

Expand to show TLE details & history

TLE from 1 day ago
0 ALOUETTE 2
1 01804U 65098A   25022.35128977  .00000734  00000-0  23963-3 0  9994
2 01804  79.8032 350.9779 1333059 187.7279 170.1261 12.27620658616571
Epoch: 2025-01-22T08:25Z
Definitive object data (Epoch: 2025-01-22T08:25:51.436Z)
Latitude-0.00004°
Longitude102.56917°
Altitude2,608.244 km
Speed6.207 km/s
True Right ascension23h 23m 54s
True Declination0° 00' 00"
Sunlit
Object was in daylight at TLE epoch
Visualization TLE readout
Latitude-56.5996°
Longitude85.78915°
Altitude1,940.651 km
Speed6.764 km/s
Apparent Right ascension00h 30m 52s
Apparent Declination-53° 53' 41"
Sunlit
Object is in daylight
Visualization observer readout
Local Sidereal Time14:35:26
Azimuth134.171° SE
Elevation-64.857°
Doppler factor1
Orbital elements
Apogee altitude2,614.738 km
Perigee altitude499.151 km
Semi-major axis7,935.082 km
Eccentricity0.1333059
Inclination79.8032°
RAAN350.9779°
Arg. of periapsis187.7279°
True anomaly172.37404°
Mean anomaly170.1261°
Eccentric anomaly171.28357°
Mean motion3.07055 °/min
BSTAR0.00023963
Orbital period117.24 mins
Loading maneuver chart data...
Loading historical data...
Loading historical data...
Loading historical data...
Loading historical data...
Loading historical data...
Loading historical data...
Loading historical data...

ALOUETTE 2 Visibility forecast

Observer location: undefined°, undefined

Span
Click to sort rows by Start time (UTC) header in descending order
Start Az.
Max El. time (UTC)
Max El. Az.
Max El.
End time (UTC)
End Az.
9 mins2025-01-23 19:50:22.606Z98.127° ESE2025-01-23 19:55:22.606Z76.375° E13.085°2025-01-23 19:59:22.606Z57.257° ENE
24 mins2025-01-23 21:39:22.606Z165.246° S2025-01-23 21:52:22.606Z91.826° ESE40.585°2025-01-23 22:03:22.606Z19.531° NNE
22 mins2025-01-23 23:39:22.606Z221.786° SW2025-01-23 23:51:22.606Z289.379° WNW35.988°2025-01-24 00:01:22.606Z357.979° N
5 mins2025-01-24 08:07:22.606Z26.012° NE2025-01-24 08:10:22.606Z63.84° ENE17.876°2025-01-24 08:12:22.606Z93.036° ESE
7 mins2025-01-24 10:05:22.606Z327.373° NNW2025-01-24 10:09:22.606Z264.6° W28.895°2025-01-24 10:12:22.606Z210.59° SW
|